H1 CPF 2 NER 2021 8 19 9 231 01 glonass131 H2 1301901 9131 39155 2021 8 19 0 0 0 2021 8 22 23 45 0 900 1 1 0 0 0 1 H9 10 0 59445 0.00000 0 -9460120.473 -8362380.068 22213148.006 10 0 59445 900.00000 0 -6790722.363 -9111558.239 22880937.876 10 0 59445 1800.00000 0 -4131587.313 -10073783.270 23106429.623 10 0 59445 2700.00000 0 -1549375.631 -11228746.408 22885049.764 10 0 59445 3600.00000 0 893784.529 -12544731.268 22220825.830 10 0 59445 4500.00000 0 3142642.516 -13979832.313 21126329.206 10 0 59445 5400.00000 0 5150883.915 -15483618.158 19622457.050 10 0 59445 6300.00000 0 6882817.861 -16999173.319 17738055.394 10 0 59445 7200.00000 0 8314622.701 -18465435.587 15509388.312 10 0 59445 8100.00000 0 9435097.507 -19819733.331 12979460.965 10 0 59445 9000.00000 0 10245886.988 -21000417.704 10197207.239 10 0 59445 9900.00000 0 10761168.939 -21949479.606 7216555.820 10 0 59445 10800.00000 0 11006816.059 -22615040.852 4095391.390 10 0 59445 11700.00000 0 11019066.245 -22953613.134 894430.335 10 0 59445 12600.00000 0 10842756.773 -22932027.303 -2323967.004 10 0 59445 13500.00000 0 10529197.012 -22528948.882 -5497023.774 10 0 59445 14400.00000 0 10133770.381 -21735912.889 -8562788.372 10 0 59445 15300.00000 0 9713368.504 -20557831.467 -11461364.355 10 0 59445 16200.00000 0 9323768.324 -19012950.477 -14136102.288 10 0 59445 17100.00000 0 9017065.782 -17132255.028 -16534728.001 10 0 59445 18000.00000 0 8839277.433 -14958348.149 -18610383.024 10 0 59445 18900.00000 0 8828214.071 -12543849.465 -20322555.064 10 0 59445 19800.00000 0 9011718.514 -9949381.704 -21637879.057 10 0 59445 20700.00000 0 9406343.626 -7241230.581 -22530792.271 10 0 59445 21600.00000 0 10016527.354 -4488777.341 -22984030.516 10 0 59445 22500.00000 0 10834299.789 -1761812.717 -22988956.119 10 0 59445 23400.00000 0 11839534.124 872154.304 -22545712.069 10 0 59445 24300.00000 0 13000729.873 3350479.976 -21663200.564 10 0 59445 25200.00000 0 14276293.945 5617753.867 -20358887.835 10 0 59445 26100.00000 0 15616263.998 7627853.477 -18658440.683 10 0 59445 27000.00000 0 16964399.947 9345601.360 -16595203.495 10 0 59445 27900.00000 0 18260554.242 10747957.983 -14209527.497 10 0 59445 28800.00000 0 19443220.160 11824703.360 -11547966.850 10 0 59445 29700.00000 0 20452150.412 12578582.379 -8662358.491 10 0 59445 30600.00000 0 21230935.907 13024911.246 -5608804.628 10 0 59445 31500.00000 0 21729436.817 13190664.893 -2446578.457 10 0 59445 32400.00000 0 21905964.724 13113086.717 763025.297 10 0 59445 33300.00000 0 21729125.575 12837881.505 3957872.713 10 0 59445 34200.00000 0 21179247.571 12417069.206 7076183.295 10 0 59445 35100.00000 0 20249335.666 11906590.740 10057710.582 10 0 59445 36000.00000 0 18945513.975 11363766.642 12844889.105 10 0 59445 36900.00000 0 17286938.500 10844714.795 15383926.899 10 0 59445 37800.00000 0 15305184.184 10401834.647 17625824.248 10 0 59445 38700.00000 0 13043131.492 10081462.121 19527300.860 10 0 59445 39600.00000 0 10553397.900 9921792.081 21051615.340 10 0 59445 40500.00000 0 7896377.807 9951154.186 22169262.897 10 0 59445 41400.00000 0 5137969.951 10186713.471 22858539.169 10 0 59445 42300.00000 0 2347084.018 10633649.824 23105960.141 10 0 59445 43200.00000 0 -406973.052 11284851.201 22906530.424 10 0 59445 44100.00000 0 -3057125.530 12121134.713 22263854.346 10 0 59445 45000.00000 0 -5541065.506 13111988.278 21190086.721 10 0 59445 45900.00000 0 -7803594.407 14216804.293 19705722.682 10 0 59445 46800.00000 0 -9798673.378 15386556.430 17839228.515 10 0 59445 47700.00000 0 -11491097.690 16565851.975 15626518.275 10 0 59445 48600.00000 0 -12857725.134 17695275.963 13110283.819 10 0 59445 49500.00000 0 -13888206.279 18713930.429 10339188.831 10 0 59445 50400.00000 0 -14585184.621 19562062.803 7366940.523 10 0 59445 51300.00000 0 -14963956.809 20183672.735 4251255.528 10 0 59445 52200.00000 0 -15051605.791 20528986.335 1052739.299 10 0 59445 53100.00000 0 -14885642.392 20556691.521 -2166299.146 10 0 59445 54000.00000 0 -14512212.201 20235837.469 -5343073.372 10 0 59445 54900.00000 0 -13983943.743 19547314.889 -8415561.276 10 0 59445 55800.00000 0 -13357530.024 18484851.646 -11323736.264 10 0 59445 56700.00000 0 -12691147.374 17055478.756 -14010761.639 10 0 59445 57600.00000 0 -12041823.080 15279444.778 -16424122.603 10 0 59445 58500.00000 0 -11462865.730 13189580.665 -18516671.552 10 0 59445 59400.00000 0 -11001469.488 10830140.999 -20247564.440 10 0 59445 60300.00000 0 -10696595.796 8255170.194 -21583068.587 10 0 59445 61200.00000 0 -10577223.723 5526462.851 -22497225.234 10 0 59445 62100.00000 0 -10661043.919 2711204.735 -22972353.757 10 0 59445 63000.00000 0 -10953651.593 -120605.743 -22999388.000 10 0 59445 63900.00000 0 -11448272.101 -2898846.533 -22578038.959 10 0 59445 64800.00000 0 -12126029.630 -5555958.409 -21716781.879 10 0 59445 65700.00000 0 -12956746.053 -8029516.555 -20432669.456 10 0 59445 66600.00000 0 -13900234.423 -10264580.292 -18750976.443 10 0 59445 67500.00000 0 -14908030.640 -12215724.165 -16704684.246 10 0 59445 68400.00000 0 -15925488.541 -13848667.530 -14333817.149 10 0 59445 69300.00000 0 -16894148.626 -15141437.092 -11684644.622 10 0 59445 70200.00000 0 -17754279.601 -16085016.874 -8808766.513 10 0 59445 71100.00000 0 -18447485.186 -16683461.790 -5762099.922 10 0 59445 72000.00000 0 -18919266.468 -16953473.375 -2603788.246 10 0 59445 72900.00000 0 -19121432.491 -16923458.668 604946.030 10 0 59445 73800.00000 0 -19014258.701 -16632114.445 3801982.558 10 0 59445 74700.00000 0 -18568303.779 -16126598.337 6925495.748 10 0 59445 75600.00000 0 -17765809.945 -15460364.995 9915136.464 10 0 59445 76500.00000 0 -16601629.269 -14690758.722 12713181.142 10 0 59445 77400.00000 0 -15083638.164 -13876463.426 15265627.435 10 0 59445 78300.00000 0 -13232623.212 -13074916.057 17523217.035 10 0 59445 79200.00000 0 -11081642.895 -12339790.624 19442367.738 10 0 59445 80100.00000 0 -8674891.025 -11718656.670 20985998.601 10 0 59445 81000.00000 0 -6066107.591 -11250908.658 22124233.946 10 0 59445 81900.00000 0 -3316600.803 -10966051.579 22834974.070 10 0 59445 82800.00000 0 -492959.834 -10882413.684 23104322.480 10 0 59445 83700.00000 0 2335449.886 -11006339.938 22926861.826 10 0 59445 84600.00000 0 5099108.036 -11331900.516 22305772.850 10 0 59445 85500.00000 0 7730971.402 -11841127.748 21252793.132 10 0 59446 0.00000 0 10169009.736 -12504773.540 19788014.878 10 0 59446 900.00000 0 12358541.736 -13283557.970 17939523.320 10 0 59446 1800.00000 0 14254275.233 -14129858.795 15742881.047 10 0 59446 2700.00000 0 15821965.738 -14989773.946 13240464.789 10 0 59446 3600.00000 0 17039624.863 -15805471.607 10480665.888 10 0 59446 4500.00000 0 17898225.611 -16517730.530 7516967.594 10 0 59446 5400.00000 0 18401874.060 -17068563.713 4406915.695 10 0 59446 6300.00000 0 18567438.399 -17403814.132 1211001.631 10 0 59446 7200.00000 0 18423649.551 -17475611.329 -2008520.171 10 0 59446 8100.00000 0 18009710.309 -17244582.660 -5188857.026 10 0 59446 9000.00000 0 17373471.606 -16681722.873 -8267919.644 10 0 59446 9900.00000 0 16569253.268 -15769839.840 -11185554.476 10 0 59446 10800.00000 0 15655402.575 -14504512.133 -13884740.542 10 0 59446 11700.00000 0 14691695.819 -12894515.400 -16312725.127 10 0 59446 12600.00000 0 13736694.880 -10961697.346 -18422073.886 10 0 59446 13500.00000 0 12845172.985 -8740305.210 -20171613.039 10 0 59446 14400.00000 0 12065720.633 -6275793.381 -21527243.871 10 0 59446 15300.00000 0 11438634.574 -3623161.326 -22462612.718 10 0 59446 16200.00000 0 10994180.125 -844892.158 -22959623.146 10 0 59446 17100.00000 0 10751300.571 1991420.881 -23008780.634 10 0 59446 18000.00000 0 10716827.704 4815659.597 -22609363.811 10 0 59446 18900.00000 0 10885225.685 7557868.772 -21769420.116 10 0 59446 19800.00000 0 11238877.328 10150934.139 -20505587.428 10 0 59446 20700.00000 0 11748898.628 12533138.527 -18842746.763 10 0 59446 21600.00000 0 12376444.909 14650490.291 -16813514.491 10 0 59446 22500.00000 0 13074451.269 16458728.232 -14457585.560 10 0 59446 23400.00000 0 13789731.936 17924921.269 -11820942.042 10 0 59446 24300.00000 0 14465348.417 19028598.731 -8954943.704 10 0 59446 25200.00000 0 15043145.520 19762366.978 -5915319.321 10 0 59446 26100.00000 0 15466347.870 20131989.741 -2761079.119 10 0 59446 27000.00000 0 15682107.585 20155931.971 446630.098 10 0 59446 27900.00000 0 15643896.423 19864389.176 3645704.954 10 0 59446 28800.00000 0 15313642.699 19297845.275 6774278.006 10 0 59446 29700.00000 0 14663524.368 18505221.175 9771900.455 10 0 59446 30600.00000 0 13677344.130 17541692.631 12580693.325 10 0 59446 31500.00000 0 12351429.987 16466269.006 15146446.220 10 0 59446 32400.00000 0 10695024.101 15339233.856 17419644.174 10 0 59446 33300.00000 0 8730143.767 14219553.299 19356404.644 10 0 59446 34200.00000 0 6490919.675 13162359.077 20919308.312 10 0 59446 35100.00000 0 4022437.683 12216609.815 22078109.431 10 0 59446 36000.00000 0 1379130.175 11423026.525 22810313.396 10 0 59446 36900.00000 0 -1377218.707 10812387.299 23101611.297 10 0 59446 37800.00000 0 -4179774.199 10404251.554 22946163.482 10 0 59446 38700.00000 0 -6959166.171 10206166.993 22346726.364 10 0 59446 39600.00000 0 -9646117.102 10213392.973 21314619.103 10 0 59446 40500.00000 0 -12174076.454 10409153.083 19869529.279 10 0 59446 41400.00000 0 -14481754.127 10765408.161 18039159.230 10 0 59446 42300.00000 0 -16515448.843 11244119.445 15858717.579 10 0 59446 43200.00000 0 -18231075.002 11798951.043 13370263.270 10 0 59446 44100.00000 0 -19595803.056 12377342.066 10621912.404 10 0 59446 45000.00000 0 -20589243.666 12922862.614 7666921.252 10 0 59446 45900.00000 0 -21204124.489 13377754.947 4562661.699 10 0 59446 46800.00000 0 -21446429.353 13685552.334 1369508.142 10 0 59446 47700.00000 0 -21334992.175 13793663.741 -1850342.527 10 0 59446 48600.00000 0 -20900561.327 13655813.031 -5034094.239 10 0 59446 49500.00000 0 -20184373.122 13234226.809 -8119593.243 10 0 59446 50400.00000 0 -19236294.502 12501475.242 -11046561.587 10 0 59446 51300.00000 0 -18112614.091 11441884.830 -13757796.380 10 0 59446 52200.00000 0 -16873576.155 10052460.306 -16200309.103 10 0 59446 53100.00000 0 -15580763.631 8343274.206 -18326380.449 10 0 59446 54000.00000 0 -14294443.075 6337305.907 -20094508.313 10 0 59446 54900.00000 0 -13070985.541 4069735.592 -21470228.962 10 0 59446 55800.00000 0 -11960474.198 1586722.495 -22426794.420 10 0 59446 56700.00000 0 -11004600.838 -1056281.045 -22945692.622 10 0 59446 57600.00000 0 -10234940.534 -3796608.419 -23017000.451 10 0 59446 58500.00000 0 -9671676.952 -6566762.384 -22639563.535 10 0 59446 59400.00000 0 -9322830.978 -9297002.870 -21821000.503 10 0 59446 60300.00000 0 -9184023.454 -11918030.134 -20577533.049 10 0 59446 61200.00000 0 -9238779.731 -14363650.744 -18933646.765 10 0 59446 62100.00000 0 -9459360.661 -16573315.383 -16921591.020 10 0 59446 63000.00000 0 -9808082.319 -18494423.413 -14580729.229 10 0 59446 63900.00000 0 -10239066.320 -20084299.350 -11956753.718 10 0 59446 64800.00000 0 -10700344.726 -21311760.906 -9100781.747 10 0 59446 65700.00000 0 -11136229.128 -22158215.573 -6068351.295 10 0 59446 66600.00000 0 -11489842.878 -22618242.757 -2918336.964 10 0 59446 67500.00000 0 -11705709.275 -22699640.077 288192.552 10 0 59446 68400.00000 0 -11732286.733 -22422934.720 3489153.235 10 0 59446 69300.00000 0 -11524344.781 -21820382.761 6622638.152 10 0 59446 70200.00000 0 -11045081.903 -20934500.324 9628101.157 10 0 59446 71100.00000 0 -10267897.283 -19816189.317 12447510.129 10 0 59446 72000.00000 0 -9177743.163 -18522536.679 15026448.798 10 0 59446 72900.00000 0 -7772001.904 -17114379.002 17315147.588 10 0 59446 73800.00000 0 -6060851.303 -15653733.343 19269425.464 10 0 59446 74700.00000 0 -4067102.607 -14201200.150 20851526.345 10 0 59446 75600.00000 0 -1825516.910 -12813444.904 22030835.737 10 0 59446 76500.00000 0 618373.448 -11540861.674 22784465.151 10 0 59446 77400.00000 0 3209891.807 -10425514.318 23097693.953 10 0 59446 78300.00000 0 5887227.840 -9499439.835 22964260.576 10 0 59446 79200.00000 0 8583751.682 -8783383.850 22386497.184 10 0 59446 80100.00000 0 11230538.607 -8286020.897 21375304.320 10 0 59446 81000.00000 0 13759002.414 -8003692.663 19949964.499 10 0 59446 81900.00000 0 16103530.582 -7920676.307 18137796.314 10 0 59446 82800.00000 0 18204013.157 -8009973.321 15973653.412 10 0 59446 83700.00000 0 20008160.924 -8234587.713 13499275.537 10 0 59446 84600.00000 0 21473516.080 -8549241.650 10762501.772 10 0 59446 85500.00000 0 22569070.384 -8902457.874 7816359.237 10 0 59447 0.00000 0 23276421.570 -9238922.046 4718043.410 10 0 59447 900.00000 0 23590417.286 -9502025.181 1527808.567 10 0 59447 1800.00000 0 23519258.147 -9636478.662 -1692209.102 10 0 59447 2700.00000 0 23084052.430 -9590888.326 -4879213.557 10 0 59447 3600.00000 0 22317841.328 -9320177.680 -7970990.068 10 0 59447 4500.00000 0 21264134.022 -8787753.766 -10907139.708 10 0 59447 5400.00000 0 19975014.988 -7967321.274 -13630280.913 10 0 59447 6300.00000 0 18508904.005 -6844264.816 -16087192.324 10 0 59447 7200.00000 0 16928065.041 -5416538.198 -18229872.345 10 0 59447 8100.00000 0 15295970.907 -3695020.825 -20016492.862 10 0 59447 9000.00000 0 13674636.883 -1703324.553 -21412227.051 10 0 59447 9900.00000 0 12122037.591 522941.604 -22389934.142 10 0 59447 10800.00000 0 10689717.293 2937418.300 -22930687.516 10 0 59447 11700.00000 0 9420695.063 5484701.448 -23024136.087 10 0 59447 12600.00000 0 8347753.016 8102434.205 -22668692.649 10 0 59447 13500.00000 0 7492178.772 10723696.853 -21871546.711 10 0 59447 14400.00000 0 6863013.425 13279593.688 -20648503.020 10 0 59447 15300.00000 0 6456834.423 15701928.087 -19023650.526 10 0 59447 16200.00000 0 6258079.732 17925853.785 -17028869.955 10 0 59447 17100.00000 0 6239896.660 19892391.993 -14703191.139 10 0 59447 18000.00000 0 6365476.639 21550710.043 -12092014.221 10 0 59447 18900.00000 0 6589817.015 22860067.965 -9246211.147 10 0 59447 19800.00000 0 6861833.251 23791353.669 -6221125.994 10 0 59447 20700.00000 0 7126730.825 24328144.973 -3075494.385 10 0 59447 21600.00000 0 7328535.742 24467256.728 129696.605 10 0 59447 22500.00000 0 7412676.564 24218752.808 3332385.880 10 0 59447 23400.00000 0 7328509.408 23605424.916 6470630.516 10 0 59447 24300.00000 0 7031680.246 22661762.024 9483790.361 10 0 59447 25200.00000 0 6486226.103 21432455.025 12313683.245 10 0 59447 26100.00000 0 5666327.971 19970499.854 14905689.800 10 0 59447 27000.00000 0 4557642.769 18334978.336 17209788.270 10 0 59447 27900.00000 0 3158159.101 16588608.687 19181501.180 10 0 59447 28800.00000 0 1478541.040 14795166.554 20782737.362 10 0 59447 29700.00000 0 -458055.122 13016882.312 21982514.857 10 0 59447 30600.00000 0 -2616684.970 11311921.012 22757552.172 10 0 59447 31500.00000 0 -4951813.671 9732047.974 23092717.413 10 0 59447 32400.00000 0 -7408960.232 8320575.398 22981327.114 10 0 59447 33300.00000 0 -9926723.118 7110674.210 22425288.748 10 0 59447 34200.00000 0 -12439106.258 6124120.791 21435083.304 10 0 59447 35100.00000 0 -14878051.969 5370530.773 20029586.808 10 0 59447 36000.00000 0 -17176078.199 4847112.545 18235732.193 10 0 59447 36900.00000 0 -19268912.338 4538951.955 16088015.769 10 0 59447 37800.00000 0 -21098013.084 4419817.807 13627855.330 10 0 59447 38700.00000 0 -22612875.418 4453456.033 10902809.894 10 0 59447 39600.00000 0 -23773021.627 4595319.614 7965674.175 10 0 59447 40500.00000 0 -24549593.620 4794662.471 4873463.750 10 0 59447 41400.00000 0 -24926477.735 4996909.394 1686309.677 10 0 59447 42300.00000 0 -24900912.462 5146201.480 -1533715.997 10 0 59447 43200.00000 0 -24483551.346 5188008.199 -4723820.471 10 0 59447 44100.00000 0 -23697976.392 5071693.460 -7821731.074 10 0 59447 45000.00000 0 -22579681.359 4752924.378 -10766930.768 10 0 59447 45900.00000 0 -21174567.066 4195817.704 -13501861.945 10 0 59447 46800.00000 0 -19537012.342 3374729.852 -15973072.755 10 0 59447 47700.00000 0 -17727603.069 2275611.841 -18132281.297 10 0 59447 48600.00000 0 -15810616.512 896869.329 -19937335.000 10 0 59447 49500.00000 0 -13851368.699 -750310.498 -21353045.023 10 0 59447 50400.00000 0 -11913538.340 -2642180.191 -22351878.360 10 0 59447 51300.00000 0 -10056581.413 -4743192.654 -22914493.885 10 0 59447 52200.00000 0 -8333346.104 -7007269.050 -23030112.084 10 0 59447 53100.00000 0 -6787988.660 -9379520.061 -22696712.000 10 0 59447 54000.00000 0 -5454277.139 -11798347.450 -21921052.714 10 0 59447 54900.00000 0 -4354352.906 -14197836.900 -20718520.370 10 0 59447 55800.00000 0 -3497999.817 -16510340.981 -19112805.354 10 0 59447 56700.00000 0 -2882449.032 -18669143.679 -17135417.599 10 0 59447 57600.00000 0 -2492724.547 -20611094.903 -14825051.071 10 0 59447 58500.00000 0 -2302511.663 -22279105.193 -12226811.347 10 0 59447 59400.00000 0 -2275508.681 -23624397.292 -9391322.666 10 0 59447 60300.00000 0 -2367202.054 -24608421.994 -6373732.820 10 0 59447 61200.00000 0 -2526987.929 -25204360.007 -3232636.124 10 0 59447 62100.00000 0 -2700548.994 -25398149.347 -28935.779 10 0 59447 63000.00000 0 -2832385.466 -25188997.634 3175332.237 10 0 59447 63900.00000 0 -2868393.343 -24589360.160 6318191.148 10 0 59447 64800.00000 0 -2758381.603 -23624386.687 9338908.879 10 0 59447 65700.00000 0 -2458423.185 -22330861.597 12179155.246 10 0 59447 66600.00000 0 -1932941.957 -20755682.637 14784109.747 10 0 59447 67500.00000 0 -1156449.029 -18953941.956 17103500.310 10 0 59447 68400.00000 0 -114856.416 -16986688.928 19092554.732 10 0 59447 69300.00000 0 1193686.574 -14918466.864 20712848.282 10 0 59447 70200.00000 0 2758469.434 -12814724.405 21933032.828 10 0 59447 71100.00000 0 4556423.577 -10739207.197 22729434.902 10 0 59447 72000.00000 0 6552845.656 -8751436.166 23086512.112 10 0 59447 72900.00000 0 8702613.377 -6904375.083 22997159.580 10 0 59447 73800.00000 0 10951846.148 -5242382.639 22462860.307 10 0 59447 74700.00000 0 13239944.590 -3799533.018 21493675.697 10 0 59447 75600.00000 0 15501927.323 -2598374.275 20108075.001 10 0 59447 76500.00000 0 17670970.711 -1649176.338 18332604.963 10 0 59447 77400.00000 0 19681048.080 -949700.787 16201403.758 10 0 59447 78300.00000 0 21469559.971 -485503.178 13755566.135 10 0 59447 79200.00000 0 22979846.274 -230756.707 11042369.619 10 0 59447 80100.00000 0 24163474.811 -149564.088 8114374.732 10 0 59447 81000.00000 0 24982209.317 -197703.636 5028415.046 10 0 59447 81900.00000 0 25409572.360 -324736.592 1844495.734 10 0 59447 82800.00000 0 25431935.059 -476386.726 -1375378.106 10 0 59447 83700.00000 0 25049085.282 -597090.771 -4568419.993 10 0 59447 84600.00000 0 24274248.064 -632610.060 -7672302.567 10 0 59447 85500.00000 0 23133555.458 -532590.547 -10626393.913 10 0 59448 0.00000 0 21664986.891 -252959.991 -13372963.465 10 0 59448 900.00000 0 19916824.158 241942.750 -15858331.929 10 0 59448 1800.00000 0 17945686.902 977598.056 -18033939.770 10 0 59448 2700.00000 0 15814231.768 1967975.401 -19857312.380 10 0 59448 3600.00000 0 13588614.013 3214698.710 -21292901.043 10 0 59448 4500.00000 0 11335819.790 4706745.523 -22312782.357 10 0 59448 5400.00000 0 9120982.839 6420692.777 -22897202.202 10 0 59448 6300.00000 0 7004799.372 8321499.185 -23034953.815 10 0 59448 7200.00000 0 5041150.320 10363790.735 -22723583.284 10 0 59448 8100.00000 0 3275030.418 12493594.499 -21969419.642 10 0 59448 9000.00000 0 1740869.922 14650446.882 -20787430.366 10 0 59448 9900.00000 0 461317.565 16769786.818 -19200906.751 10 0 59448 10800.00000 0 -553466.803 18785532.703 -17240986.949 10 0 59448 11700.00000 0 -1305983.299 20632734.657 -14946027.593 10 0 59448 12600.00000 0 -1811022.966 22250190.861 -12360837.795 10 0 59448 13500.00000 0 -2094777.582 23582918.982 -9535791.746 10 0 59448 14400.00000 0 -2193469.012 24584380.150 -6525838.250 10 0 59448 15300.00000 0 -2151558.560 25218363.871 -3389427.283 10 0 59448 16200.00000 0 -2019614.004 25460456.806 -187374.886 10 0 59448 17100.00000 0 -1851925.656 25299036.008 3018311.522 10 0 59448 18000.00000 0 -1703972.670 24735747.119 6165624.825 10 0 59448 18900.00000 0 -1629846.391 23785449.465 9193744.519 10 0 59448 19800.00000 0 -1679738.730 22475631.855 12044195.779 10 0 59448 20700.00000 0 -1897600.273 20845324.519 14661960.172 10 0 59448 21600.00000 0 -2319065.447 18943552.935 16996518.254 10 0 59448 22500.00000 0 -2969730.800 16827397.616 19002805.775 10 0 59448 23400.00000 0 -3863857.767 14559739.623 20642066.785 10 0 59448 24300.00000 0 -5003554.027 12206783.937 21882588.979 10 0 59448 25200.00000 0 -6378468.092 9835461.475 22700308.525 10 0 59448 26100.00000 0 -7966011.039 7510815.380 23079273.715 10 0 59448 27000.00000 0 -9732098.055 5293477.725 23011958.974 10 0 59448 27900.00000 0 -11632381.440 3237339.249 22499423.025 10 0 59448 28800.00000 0 -13613926.628 1387507.299 21551307.334 10 0 59448 29700.00000 0 -15617264.565 -221364.247 20185673.454 10 0 59448 30600.00000 0 -17578737.968 -1566304.030 18428680.435 10 0 59448 31500.00000 0 -19433046.174 -2636759.658 16314106.259 10 0 59448 32400.00000 0 -21115884.328 -3434810.019 13882720.071 10 0 59448 33300.00000 0 -22566567.655 -3974843.367 11181514.924 10 0 59448 34200.00000 0 -23730531.018 -4282713.239 8262813.830 10 0 59448 35100.00000 0 -24561598.127 -4394406.440 5183264.823 10 0 59448 36000.00000 0 -25023923.415 -4354278.269 2002743.527 10 0 59448 36900.00000 0 -25093522.549 -4212929.094 -1216815.586 10 0 59448 37800.00000 0 -24759324.449 -4024812.398 -4412636.001 10 0 59448 38700.00000 0 -24023697.869 -3845676.725 -7522339.167 10 0 59448 39600.00000 0 -22902427.876 -3729951.703 -10485181.635 10 0 59448 40500.00000 0 -21424141.443 -3728191.359 -13243263.101 10 0 59448 41400.00000 0 -19629205.055 -3884685.859 -15742679.458 10 0 59448 42300.00000 0 -17568140.548 -4235345.749 -17934596.030 10 0 59448 43200.00000 0 -15299626.522 -4805951.036 -19776218.159 10 0 59448 44100.00000 0 -12888170.173 -5610841.419 -21231638.660 10 0 59448 45000.00000 0 -10401548.948 -6652104.692 -22272544.550 10 0 59448 45900.00000 0 -7908130.874 -7919298.591 -22878768.913 10 0 59448 46800.00000 0 -5474187.233 -9389718.114 -23038677.335 10 0 59448 47700.00000 0 -3161311.089 -11029196.667 -22749382.007 10 0 59448 48600.00000 0 -1024049.955 -12793406.498 -22016780.506 10 0 59448 49500.00000 0 892148.940 -14629602.622 -20855419.866 10 0 59448 50400.00000 0 2552596.110 -16478735.640 -19288190.219 10 0 59448 51300.00000 0 3934552.863 -18277843.597 -17345855.654 10 0 59448 52200.00000 0 5027912.805 -19962621.604 -15066433.045 10 0 59448 53100.00000 0 5835346.516 -21470060.843 -12494432.509 10 0 59448 54000.00000 0 6371906.850 -22741046.303 -9679975.633 10 0 59448 54900.00000 0 6664114.953 -23722804.786 -6677809.655 10 0 59448 55800.00000 0 6748568.571 -24371101.547 -3546237.662 10 0 59448 56700.00000 0 6670133.922 -24652094.916 -345986.037 10 0 59448 57600.00000 0 6479799.271 -24543772.902 2860968.787 10 0 59448 58500.00000 0 6232281.863 -24036913.442 6012591.686 10 0 59448 59400.00000 0 5983489.514 -23135529.850 9047975.956 10 0 59448 60300.00000 0 5787943.530 -21856784.348 11908504.236 10 0 59448 61200.00000 0 5696270.650 -20230374.313 14538962.108 10 0 59448 62100.00000 0 5752868.332 -18297417.332 16888584.544 10 0 59448 63000.00000 0 5993840.219 -16108881.269 18912016.807 10 0 59448 63900.00000 0 6445287.285 -13723623.813 20570173.063 10 0 59448 64800.00000 0 7122025.520 -11206121.438 21830977.894 10 0 59448 65700.00000 0 8026783.694 -8623979.960 22669977.890 10 0 59448 66600.00000 0 9149915.241 -6045327.645 23070812.524 10 0 59448 67500.00000 0 10469637.629 -3536196.428 23025535.748 10 0 59448 68400.00000 0 11952791.243 -1157997.406 22534781.978 10 0 59448 69300.00000 0 13556088.672 1034806.672 21607772.479 10 0 59448 70200.00000 0 15227805.211 2996736.824 20262160.626 10 0 59448 71100.00000 0 16909843.050 4692957.484 18523717.095 10 0 59448 72000.00000 0 18540085.629 6100491.368 16425858.785 10 0 59448 72900.00000 0 20054946.019 7208938.456 14009028.131 10 0 59448 73800.00000 0 21392004.115 8020668.058 11319932.355 10 0 59448 74700.00000 0 22492622.621 8550474.564 8410655.333 10 0 59448 75600.00000 0 23304431.574 8824710.001 5337657.652 10 0 59448 76500.00000 0 23783575.613 8879928.789 2160683.187 10 0 59448 77400.00000 0 23896627.185 8761101.044 -1058406.663 10 0 59448 78300.00000 0 23622082.476 8519469.930 -4256847.997 10 0 59448 79200.00000 0 22951374.095 8210144.373 -7372213.853 10 0 59448 80100.00000 0 21889354.969 7889530.398 -10343652.056 10 0 59448 81000.00000 0 20454230.726 7612712.028 -13113095.250 10 0 59448 81900.00000 0 18676941.516 7430895.200 -15626417.205 10 0 59448 82800.00000 0 16600018.451 7389025.728 -17834510.509 10 0 59448 83700.00000 0 14275962.591 7523684.870 -19694262.687 10 0 59448 84600.00000 0 11765215.126 7861353.905 -21169410.145 10 0 59448 85500.00000 0 9133805.159 8417122.870 -22231252.177 99